CAPE
416 390 256 234 383 377 418 75 101 255 42 13 5 0 0 0 0 0 0 0 0 0 0 0 0 0 0 0 0 0 0 0 0 0 0 0 0 0 0 0 0 0 0 0 0
184 206 184 261 278 208 188 185 150 70 33 37 1 0 0 0 0 0 0 0 0 0 0 0 0 0 0 0 0 0 0 0 0 0 0 0 0 0 0 0 0 0 0 0 0
220 305 185 186 198 164 207 13 0 3 34 24 0 0 0 0 0 0 0 0 0 0 0 0 0 0 0 0 0 0 0 0 0 0 0 0 0 0 0 0 0 0 0 0 0
434 437 481 375 129 4 0 0 0 7 42 0 0 0 0 0 0 0 0 0 0 0 0 0 0 0 0 0 0 0 0 0 0 0 0 0 0 0 0 0 0 0 0 0 0
311 258 349 26 7 28 0 0 0 28 0 0 0 0 0 0 0 0 0 0 0 0 0 0 0 0 0 0 0 0 0 0 0 0 0 0 0 0 0 0 0 0 0 0 0
48 105 103 32 32 10 11 17 0 0 0 0 0 0 0 0 0 0 0 0 0 0 0 0 0 0 0 0 0 0 0 0 0 0 0 0 0 0 0 0 0 0 0 0 0
40 2 1 0 0 0 0 0 0 0 0 0 0 0 0 0 0 0 0 0 0 0 0 0 0 0 0 0 0 0 0 0 0 0 0 0 0 0 0 0 0 0 0 0 0
0 0 0 0 0 0 0 0 0 0 0 0 0 0 0 0 0 0 0 0 0 0 0 0 0 0 0 0 0 0 0 0 0 0 0 0 0 0 0 0 0 0 0 0 0
0 0 0 0 0 0 0 0 0 0 0 0 0 0 0 0 0 0 0 0 0 0 0 0 0 0 0 0 0 0 0 0 0 0 0 0 0 0 0 0 0 0 0 0 0
0 0 0 0 0 0 0 0 0 0 0 0 0 0 0 0 0 0 0 0 0 0 0 0 0 0 0 0 0 0 0 0 0 0 0 0 0 0 0 0 0 0 0 0 0
0 0 0 0 0 0 0 0 0 0 0 0 0 0 0 0 0 0 0 0 0 0 0 0 0 0 0 0 0 0 0 0 0 0 0 0 0 0 0 0 0 0 0 0 0
0 0 0 0 0 0 0 0 0 0 0 0 0 0 0 0 0 0 0 0 0 0 0 0 0 0 0 0 0 0 0 0 0 0 0 0 0 0 0 0 0 0 0 0 0
0 0 0 0 0 0 0 0 0 0 0 0 0 0 0 0 0 0 0 0 0 0 0 0 0 0 0 0 0 0 0 0 0 0 0 0 0 0 0 0 0 0 0 0 0
0 0 0 0 0 0 0 0 0 0 0 0 0 0 0 0 0 0 0 0 0 0 0 0 0 0 0 0 0 0 0 0 0 0 0 0 0 0 0 0 0 0 0 0 0
0 0 0 0 0 0 0 0 0 0 0 0 0 0 0 0 0 0 0 0 0 0 0 0 0 0 0 0 0 0 0 0 0 0 0 0 0 0 0 0 0 0 0 0 0
0 0 0 0 0 0 0 0 0 0 0 0 0 0 0 0 0 0 0 0 0 0 0 0 0 0 0 0 0 0 0 0 0 0 0 0 0 0 0 0 0 0 0 0 0
0 0 0 0 0 0 0 0 0 0 0 0 0 0 0 0 0 0 0 0 0 0 0 0 0 0 0 0 0 0 0 0 0 0 0 0 0 0 0 0 0 0 0 0 0
0 0 0 0 0 0 0 0 0 0 0 0 0 0 0 0 0 0 0 0 0 0 0 0 0 0 0 0 0 0 0 0 0 0 0 0 0 0 0 0 0 0 0 0 0
0 0 0 0 0 0 0 0 0 0 0 0 0 0 0 0 0 0 0 0 0 0 0 0 0 0 0 0 0 0 0 0 0 0 0 0 0 0 0 0 0 0 0 0 0
0 0 0 0 0 0 0 0 0 0 0 0 0 0 0 0 0 0 0 0 0 0 0 0 0 0 0 0 0 0 0 0 0 0 0 0 0 0 0 0 0 0 0 0 0
0 0 0 0 0 0 0 0 0 0 0 0 0 0 0 0 0 0 0 0 0 0 0 0 0 0 0 0 0 0 0 0 0 0 0 0 0 0 0 0 0 0 0 0 0
0 0 0 0 0 0 0 0 0 0 0 0 0 0 0 0 0 0 0 0 0 0 0 0 0 0 0 0 0 0 0 0 0 0 0 0 0 0 0 0 0 0 0 0 0
0 0 0 0 0 0 0 0 0 0 0 0 0 0 0 0 0 0 0 0 0 0 0 0 0 0 0 0 0 0 0 0 0 0 0 0 0 0 0 0 0 0 0 0 0
0 0 0 0 0 0 0 0 0 0 0 0 0 0 0 0 0 0 0 0 0 0 0 0 0 0 0 0 0 0 0 0 0 0 0 0 0 0 0 0 0 0 0 0 0
0 0 0 0 0 0 0 0 0 0 0 0 0 0 0 0 0 0 0 0 0 0 0 0 0 0 0 0 0 0 0 0 0 0 0 0 0 0 0 0 0 0 0 0 0
0 0 0 0 0 0 0 0 0 0 0 0 0 0 0 0 0 0 0 0 0 0 0 0 0 0 0 0 0 0 0 0 0 0 0 0 0 0 0 0 0 0 0 0 0
0 0 0 0 0 0 0 0 0 0 0 0 0 0 0 0 0 0 0 0 0 0 0 0 0 0 0 0 0 0 0 0 0 0 0 0 0 0 0 0 0 0 0 0 0
CIN
-1 -19 -33 -8 -6 -9 0 -35 -28 -4 -29 -11 -1 0 0 0 0 0 0 0 0 0 0 0 0 0 0 0 0 0 0 0 0 0 0 0 0 0 0 0 0 0 0 0 0
-13 -16 -22 -33 -12 -11 -6 -5 -4 -7 -11 -7 -1 0 0 0 0 0 0 0 0 0 0 0 0 0 0 0 0 0 0 0 0 0 0 0 0 0 0 0 0 0 0 0 0
-12 -25 -32 -11 -19 -3 0 -90 0 -16 -5 -3 0 0 0 0 0 0 0 0 0 0 0 0 0 0 0 0 0 0 0 0 0 0 0 0 0 0 0 0 0 0 0 0 0
-8 -12 -3 -13 -8 -1 0 0 0 -32 -7 0 0 0 0 0 0 0 0 0 0 0 0 0 0 0 0 0 0 0 0 0 0 0 0 0 0 0 0 0 0 0 0 0 0
-3 -3 -4 -104 -67 -16 0 0 0 -13 0 0 0 0 0 0 0 0 0 0 0 0 0 0 0 0 0 0 0 0 0 0 0 0 0 0 0 0 0 0 0 0 0 0 0
-23 -31 -27 -8 -9 -25 -4 -18 -8 0 0 0 0 0 0 0 0 0 0 0 0 0 0 0 0 0 0 0 0 0 0 0 0 0 0 0 0 0 0 0 0 0 0 0 0
-22 -44 -24 0 0 0 0 0 0 0 0 0 0 0 0 0 0 0 0 0 0 0 0 0 0 0 0 0 0 0 0 0 0 0 0 0 0 0 0 0 0 0 0 0 0
0 0 0 0 0 0 0 0 0 0 0 0 0 0 0 0 0 0 0 0 0 0 0 0 0 0 0 0 0 0 0 0 0 0 0 0 0 0 0 0 0 0 0 0 0
0 0 0 0 0 0 0 0 0 0 0 0 0 0 0 0 0 0 0 0 0 0 0 0 0 0 0 0 0 0 0 0 0 0 0 0 0 0 0 0 0 0 0 0 0
0 0 0 0 0 0 0 0 0 0 0 0 0 0 0 0 0 0 0 0 0 0 0 0 0 0 0 0 0 0 0 0 0 0 0 0 0 0 0 0 0 0 0 0 0
0 0 0 0 0 0 0 0 0 0 0 0 0 0 0 0 0 0 0 0 0 0 0 0 0 0 0 0 0 0 0 0 0 0 0 0 0 0 0 0 0 0 0 0 0
0 0 0 0 0 0 0 0 0 0 0 0 0 0 0 0 0 0 0 0 0 0 0 0 0 0 0 0 0 0 0 0 0 0 0 0 0 0 0 0 0 0 0 0 0
0 0 0 0 0 0 0 0 0 0 0 0 0 0 0 0 0 0 0 0 0 0 0 0 0 0 0 0 0 0 0 0 0 0 0 0 0 0 0 0 0 0 0 0 0
0 0 0 0 0 0 0 0 0 0 0 0 0 0 0 0 0 0 0 0 0 0 0 0 0 0 0 0 0 0 0 0 0 0 0 0 0 0 0 0 0 0 0 0 0
0 0 0 0 0 0 0 0 0 0 0 0 0 0 0 0 0 0 0 0 0 0 0 0 0 0 0 0 0 0 0 0 0 0 0 0 0 0 0 0 0 0 0 0 0
0 0 0 0 0 0 0 0 0 0 0 0 0 0 0 0 0 0 0 0 0 0 0 0 0 0 0 0 0 0 0 0 0 0 0 0 0 0 0 0 0 0 0 0 0
0 0 0 0 0 0 0 0 0 0 0 0 0 0 0 0 0 0 0 0 0 0 0 0 0 0 0 0 0 0 0 0 0 0 0 0 0 0 0 0 0 0 0 0 0
0 0 0 0 0 0 0 0 0 0 0 0 0 0 0 0 0 0 0 0 0 0 0 0 0 0 0 0 0 0 0 0 0 0 0 0 0 0 0 0 0 0 0 0 0
0 0 0 0 0 0 0 0 0 0 0 0 0 0 0 0 0 0 0 0 0 0 0 0 0 0 0 0 0 0 0 0 0 0 0 0 0 0 0 0 0 0 0 0 0
0 0 0 0 0 0 0 0 0 0 0 0 0 0 0 0 0 0 0 0 0 0 0 0 0 0 0 0 0 0 0 0 0 0 0 0 0 0 0 0 0 0 0 0 0
0 0 0 0 0 0 0 0 0 0 0 0 0 0 0 0 0 0 0 0 0 0 0 0 0 0 0 0 0 0 0 0 0 0 0 0 0 0 0 0 0 0 0 0 0
0 0 0 0 0 0 0 0 0 0 0 0 0 0 0 0 0 0 0 0 0 0 0 0 0 0 0 0 0 0 0 0 0 0 0 0 0 0 0 0 0 0 0 0 0
0 0 0 0 0 0 0 0 0 0 0 0 0 0 0 0 0 0 0 0 0 0 0 0 0 0 0 0 0 0 0 0 0 0 0 0 0 0 0 0 0 0 0 0 0
0 0 0 0 0 0 0 0 0 0 0 0 0 0 0 0 0 0 0 0 0 0 0 0 0 0 0 0 0 0 0 0 0 0 0 0 0 0 0 0 0 0 0 0 0
0 0 0 0 0 0 0 0 0 0 0 0 0 0 0 0 0 0 0 0 0 0 0 0 0 0 0 0 0 0 0 0 0 0 0 0 0 0 0 0 0 0 0 0 0
0 0 0 0 0 0 0 0 0 0 0 0 0 0 0 0 0 0 0 0 0 0 0 0 0 0 0 0 0 0 0 0 0 0 0 0 0 0 0 0 0 0 0 0 0
0 0 0 0 0 0 0 0 0 0 0 0 0 0 0 0 0 0 0 0 0 0 0 0 0 0 0 0 0 0 0 0 0 0 0 0 0 0 0 0 0 0 0 0 0
Wind_Speed
23 20 3 11 17 23 26 26 24 15 16 13 17 22 25 24 22 22 25 22 21 22 19 19 15 15 14 14 14 13 13 10 11 9 13 15 16 17 19 18 16 16 16 17 11
22 21 19 7 17 19 22 21 14 14 19 20 20 23 24 22 22 23 21 21 21 19 17 16 15 15 16 15 15 15 13 11 15 14 12 14 16 19 20 19 17 16 17 15 10
21 22 23 7 9 1 6 17 19 17 19 18 21 22 22 21 24 25 20 20 19 18 17 15 15 16 18 16 16 15 15 10 14 15 16 17 18 20 20 20 16 17 14 12 11
27 27 23 12 15 13 8 9 10 17 19 20 22 22 22 23 32 23 20 20 19 18 17 15 15 17 18 18 15 14 14 14 13 16 17 19 21 22 18 19 20 17 16 12 12
22 24 28 22 22 6 8 2 10 18 20 22 21 21 21 22 22 19 19 18 18 16 16 14 16 16 17 16 15 15 14 14 15 17 19 21 22 23 24 21 17 18 18 13 14
15 17 8 8 12 28 8 24 9 18 19 18 20 20 21 25 18 17 18 17 16 16 15 14 14 14 13 16 17 15 14 15 17 19 21 23 22 23 19 23 20 16 15 15 14
20 21 15 13 9 2 28 32 17 15 15 16 16 17 15 19 16 14 14 15 16 15 14 13 12 14 13 14 14 12 17 18 19 20 21 24 24 21 21 23 22 21 20 16 14
15 21 17 8 13 14 15 19 12 13 15 15 17 17 17 16 15 11 13 13 12 12 11 10 9 9 14 11 15 18 18 21 20 21 21 22 24 22 23 26 27 24 20 18 19
16 19 21 14 16 13 16 13 13 14 15 15 16 16 18 15 14 13 11 14 14 12 10 11 12 12 13 15 18 19 21 22 22 20 22 22 26 22 29 37 31 24 18 19 22
12 12 12 13 12 12 14 14 10 12 12 14 14 15 15 16 14 14 12 12 12 13 13 13 14 15 16 18 23 22 22 22 24 23 25 29 34 32 36 32 31 24 17 20 19
12 12 12 14 13 11 14 15 14 11 6 14 15 14 14 14 12 11 13 13 12 12 16 16 16 19 17 17 17 17 20 23 24 23 30 28 32 37 30 27 28 23 18 17 16
9 10 11 12 12 13 15 14 14 16 12 10 11 11 11 14 13 10 12 14 14 16 16 16 18 16 17 17 17 19 23 25 26 24 29 31 37 29 22 23 23 20 16 15 14
13 13 17 14 15 14 17 18 14 14 16 11 10 10 13 11 12 12 12 13 12 15 16 17 16 16 17 18 19 21 24 25 27 30 25 33 32 23 20 20 19 18 16 15 14
10 14 16 16 19 16 15 13 13 14 15 11 12 11 12 13 11 13 13 13 13 14 14 15 16 16 17 19 20 24 21 23 27 30 32 27 34 23 20 18 18 17 16 15 14
7 10 14 15 21 16 14 13 13 15 14 14 14 15 12 11 14 13 13 13 14 14 16 18 17 17 18 20 20 22 20 23 25 28 30 25 27 23 18 17 16 14 13 14 15
6 6 15 14 15 15 13 13 14 15 12 15 15 14 13 11 13 14 13 11 11 13 14 15 15 17 17 17 18 17 21 24 24 25 31 23 22 22 17 17 14 11 11 13 14
7 7 11 14 15 14 13 13 15 12 19 16 14 14 12 13 12 13 13 13 14 17 18 17 18 17 17 18 18 20 23 29 29 26 27 19 22 21 16 15 12 7 9 12 12
10 9 9 11 13 14 14 14 15 18 17 18 16 14 11 14 13 13 12 13 15 15 14 18 21 17 18 19 20 20 19 22 29 28 25 21 22 19 13 14 9 8 9 10 11
13 13 12 10 13 14 14 15 18 20 17 18 15 14 14 14 13 14 14 15 16 16 17 18 20 18 18 18 17 18 19 17 21 22 26 21 20 18 12 11 8 7 9 10 13
15 13 9 8 11 13 13 16 17 18 18 18 17 17 16 16 16 16 17 17 17 17 17 17 22 19 18 18 18 17 14 19 19 25 25 21 21 18 10 7 7 7 9 12 15
17 12 6 9 11 14 11 13 14 16 15 16 16 16 17 17 17 17 17 18 17 17 17 16 18 19 18 16 15 16 17 17 18 18 22 26 24 15 11 5 7 8 10 13 17
21 17 10 9 12 11 13 12 12 12 13 14 14 15 16 16 17 18 19 18 15 14 17 16 16 18 17 17 16 16 18 14 19 24 24 28 34 20 17 8 8 8 9 14 17
24 21 16 18 15 17 17 17 12 13 14 15 14 15 15 15 17 16 16 15 14 14 15 13 17 20 20 19 17 18 16 16 19 23 31 29 32 23 18 13 14 12 12 15 19
21 24 22 21 19 17 16 15 14 15 15 15 15 15 15 15 16 16 15 16 16 16 15 16 17 20 31 26 21 23 19 13 19 29 31 14 41 28 23 17 19 18 15 17 22
24 22 21 21 20 18 16 15 15 15 18 17 16 14 13 16 17 18 18 18 19 17 17 19 26 24 30 32 30 31 28 22 16 22 28 38 28 31 25 20 17 17 15 17 21
19 17 19 20 18 19 19 17 17 16 15 17 17 16 13 16 15 20 16 18 20 17 18 20 28 28 34 31 31 38 34 28 22 26 29 32 45 41 29 23 20 18 16 20 23
21 19 17 16 17 17 16 17 17 19 16 16 16 18 20 21 17 19 18 19 19 18 17 21 26 30 34 32 36 39 34 27 27 25 25 32 32 31 30 27 22 18 18 21 23
Wind_Direction
99 108 294 261 244 231 227 228 229 244 238 242 241 230 225 224 226 227 226 237 244 247 247 240 240 240 245 249 257 265 266 267 276 282 296 295 304 313 319 325 336 346 352 354 25
88 94 95 292 234 228 225 220 221 249 240 230 227 217 219 221 217 219 236 244 242 241 238 233 230 235 240 248 258 261 268 276 273 285 304 306 311 313 319 326 331 337 343 356 21
93 104 101 261 244 213 204 209 210 248 245 219 211 208 214 222 213 221 240 243 238 236 236 236 237 238 238 247 257 264 268 280 281 288 297 305 313 316 322 324 332 335 342 353 357
47 86 61 47 60 57 214 215 233 242 218 207 201 206 221 219 209 225 241 239 234 233 233 232 235 236 237 243 259 265 274 280 287 293 301 305 310 314 320 326 331 338 344 349 345
23 43 65 62 66 26 200 262 65 198 195 199 204 215 214 212 216 231 239 234 229 228 229 232 235 240 239 247 257 266 272 286 293 299 304 306 308 312 312 321 327 333 338 340 340
89 126 12 17 98 102 46 90 177 188 192 206 212 211 214 206 226 235 232 226 227 228 232 239 243 251 251 253 261 269 279 289 296 298 304 305 312 316 325 328 333 332 331 334 335
116 126 139 153 172 160 129 140 180 192 202 206 206 203 202 207 225 232 229 226 230 230 232 244 246 257 254 259 271 281 279 288 296 301 304 309 308 315 323 328 334 334 334 336 335
123 124 137 171 167 109 175 170 193 200 203 210 210 208 204 219 224 229 230 225 233 236 239 250 260 268 267 276 278 276 285 284 296 302 309 312 308 319 325 327 326 326 328 331 331
119 122 122 151 149 165 171 185 192 202 207 210 202 202 199 221 213 227 231 223 229 237 249 256 265 268 270 268 272 280 281 286 293 309 309 312 309 319 320 316 319 321 322 326 326
121 134 143 148 157 168 172 180 193 201 208 202 203 200 207 205 217 225 232 233 231 236 245 257 266 264 271 270 270 277 283 289 291 305 309 306 303 314 318 321 322 326 320 321 328
128 135 140 149 155 168 177 183 188 193 183 187 195 190 199 213 220 228 237 233 239 247 245 258 259 261 272 282 289 293 291 292 301 312 309 312 312 312 326 331 331 334 332 332 339
137 147 158 170 177 177 173 182 191 187 166 181 186 190 207 219 213 238 249 239 242 242 256 260 262 273 283 289 292 295 293 296 306 314 314 313 310 322 338 339 338 341 347 347 352
120 130 136 150 157 155 155 160 184 196 181 185 199 205 215 226 226 240 253 249 250 253 261 262 272 284 287 293 293 299 298 301 303 311 319 315 312 326 336 341 345 347 350 353 354
138 135 136 145 147 159 165 186 201 205 188 207 215 225 230 227 239 249 259 260 264 260 270 279 285 288 292 295 301 295 311 312 311 311 306 326 309 322 330 333 338 342 350 355 357
165 166 153 151 137 163 175 193 202 203 201 216 215 221 232 238 235 260 270 276 266 271 274 277 286 290 293 299 307 303 316 316 317 313 313 318 314 324 328 328 331 342 351 354 357
193 217 163 179 170 170 186 193 203 196 218 213 218 224 234 248 251 257 273 290 289 290 299 293 303 304 303 310 314 319 316 318 321 319 308 317 317 324 327 327 332 342 348 351 357
190 225 189 184 181 203 208 190 186 207 193 214 224 228 241 253 264 266 276 282 287 282 284 296 298 305 311 307 314 317 315 306 307 311 311 327 320 320 331 338 344 355 356 348 359
140 165 210 218 212 208 208 196 172 184 197 205 218 231 263 255 267 281 290 295 297 301 302 292 292 306 312 309 309 313 314 308 305 309 316 324 318 328 343 347 12 360 352 349 359
128 120 141 247 249 231 187 180 170 185 205 211 227 242 256 261 275 281 289 292 294 299 298 300 299 309 312 315 315 316 311 322 316 318 314 319 323 326 338 347 3 8 348 346 340
107 128 139 220 230 259 220 200 193 197 209 220 233 248 259 269 276 281 283 293 296 300 304 304 299 307 309 312 312 312 324 316 319 313 313 320 320 324 338 345 353 346 343 335 335
80 126 160 223 165 316 270 253 238 236 247 250 251 258 264 271 278 285 291 293 297 302 306 307 306 311 313 314 315 316 314 317 320 318 315 307 310 336 340 349 341 337 334 332 330
51 81 267 216 164 185 322 296 281 289 290 289 290 288 286 289 289 291 292 298 312 316 310 314 317 312 315 322 323 319 314 316 309 304 302 294 279 324 324 331 335 334 332 331 331
33 39 328 337 113 114 138 152 317 306 305 304 307 306 307 304 300 303 309 319 322 321 322 326 315 313 313 314 318 316 315 312 310 307 289 278 287 319 324 321 322 318 319 322 324
56 26 354 5 28 42 72 106 120 280 316 308 312 310 312 313 311 311 313 317 314 314 318 318 312 305 265 300 314 307 313 309 301 295 296 252 282 311 312 307 311 312 309 315 320
51 60 52 3 342 351 354 348 351 340 299 310 322 328 334 316 312 308 308 308 309 314 314 312 298 303 294 294 299 298 301 302 290 296 294 292 304 309 308 303 298 305 308 313 320
69 73 66 53 47 13 343 338 331 332 339 324 317 322 332 317 322 307 321 315 312 317 314 313 299 304 295 301 300 290 300 299 292 294 294 290 264 301 311 310 307 303 306 312 317
49 55 62 66 60 46 37 18 352 335 337 333 329 320 312 311 318 317 318 317 316 315 313 312 305 303 298 306 302 295 301 307 306 302 301 301 307 310 310 314 313 304 305 311 315